SCP
0 0 0 0 0 0 0 0 0 0 0 0 0 0 0 0 0 1 1 0 0 0 1 1 0 0 1 1 1 1 0 1 1 1 1 1 1 1 1 1 1 1 1
0 0 0 0 0 0 0 0 0 0 0 0 0 0 0 0 0 1 0 0 0 1 1 1 1 1 1 1 1 1 1 1 1 1 0 0 1 1 1 1 1 1 1
0 0 0 0 0 0 0 0 0 0 0 0 0 0 0 0 0 0 0 0 1 1 1 1 1 1 1 1 1 1 1 1 0 0 0 0 0 1 1 1 1 1 1
0 0 0 0 0 0 0 0 0 0 0 0 0 0 0 0 0 0 0 0 1 1 1 1 1 1 1 1 1 1 1 1 1 0 0 1 1 1 1 1 1 1 1
0 0 0 0 0 0 0 0 0 0 0 0 0 0 0 0 0 0 0 0 0 1 1 1 1 1 1 1 1 1 1 1 0 0 1 1 1 1 1 1 1 1 1
0 0 0 0 0 0 0 0 0 0 0 0 0 0 0 0 0 0 0 0 0 0 0 0 0 1 1 1 1 1 1 0 0 1 1 1 1 1 1 1 1 1 1
0 0 0 0 0 0 0 0 0 0 0 0 0 0 0 0 0 0 0 0 0 0 0 0 0 0 0 0 0 1 1 0 1 1 1 1 1 1 1 1 1 1 1
0 0 0 0 0 0 0 0 0 0 0 0 0 0 0 0 0 0 0 0 0 0 0 0 0 0 0 0 0 0 0 1 1 1 1 1 1 1 1 1 1 1 1
0 0 0 0 0 0 0 0 0 0 0 0 0 0 0 0 0 0 0 0 0 0 0 0 0 0 0 0 0 0 0 0 1 1 1 1 1 1 1 1 1 1 1
0 0 0 0 0 0 0 0 0 0 0 0 0 0 0 0 0 0 0 0 0 0 0 0 0 0 0 0 0 0 0 0 0 0 0 0 1 1 1 1 1 1 1
0 0 0 0 0 0 0 0 0 0 0 0 0 0 0 0 0 0 0 0 0 0 0 0 0 0 0 0 0 0 0 0 0 0 0 0 0 1 1 1 1 1 1
0 0 0 0 0 0 0 0 0 0 0 0 0 0 0 0 0 0 0 0 0 0 0 0 0 0 0 0 0 0 0 0 0 0 0 0 0 1 1 1 1 1 1
0 0 0 0 0 0 0 0 0 0 0 0 0 0 0 0 0 0 0 0 0 0 0 0 0 0 0 0 0 0 0 0 0 0 0 0 0 0 0 1 1 1 1
0 0 0 0 0 0 0 0 0 0 0 0 0 0 0 0 0 0 0 0 0 0 0 0 0 0 0 0 0 0 0 0 0 0 0 0 0 0 0 1 1 1 1
0 0 0 0 0 0 0 0 0 0 0 0 0 0 0 0 0 0 0 0 0 0 0 0 0 0 0 0 0 0 0 0 0 0 0 0 0 0 0 0 0 0 0
0 0 0 0 0 0 0 0 0 0 0 0 0 0 0 0 0 0 0 0 0 0 0 0 0 0 0 0 0 0 0 0 0 0 0 0 0 0 0 0 0 0 0
0 0 0 0 0 0 0 0 0 0 0 0 0 0 0 0 0 0 0 0 0 0 0 0 0 0 0 0 0 0 0 0 0 0 0 0 0 0 0 0 0 0 0
0 0 0 0 0 0 0 0 0 0 0 0 0 0 0 0 0 0 0 0 0 0 0 0 0 0 0 0 0 0 0 0 0 0 0 0 0 0 0 0 0 0 0
0 0 0 0 0 0 0 0 0 0 0 0 0 0 0 0 0 0 0 0 0 0 0 0 0 0 0 0 0 0 0 0 0 0 0 0 0 0 0 0 0 0 0
0 0 0 0 0 0 0 0 0 0 0 0 0 0 0 0 0 0 0 0 0 0 0 0 0 0 0 0 0 0 0 0 0 0 0 0 0 0 0 0 0 0 0
0 0 0 0 0 0 0 0 0 0 0 0 0 0 0 0 0 0 0 0 0 0 0 0 0 0 0 0 0 0 0 0 0 0 0 0 0 0 0 0 0 0 0
0 0 0 0 0 0 0 0 0 0 0 0 0 0 0 0 0 0 0 0 0 0 0 0 0 0 0 0 0 0 0 0 0 0 0 0 0 0 0 0 0 0 0
0 0 0 0 0 0 0 0 0 0 0 0 0 0 0 0 0 0 0 0 0 0 0 0 0 0 0 0 0 0 0 0 0 0 0 0 0 0 0 0 0 0 0
0 0 0 0 0 0 0 0 0 0 0 0 0 0 0 0 0 0 0 0 0 0 0 0 0 0 0 0 0 0 0 0 0 0 0 0 0 0 0 0 0 0 0
0 0 0 0 0 0 0 0 0 0 0 0 0 0 0 0 0 0 0 0 0 0 0 0 0 0 0 0 0 0 0 0 0 0 0 0 0 0 0 0 0 0 0
0 0 0 0 0 0 0 0 0 0 0 0 0 0 0 0 0 0 0 0 0 0 0 0 0 0 0 0 0 0 0 0 0 0 0 0 0 0 0 0 0 0 0
Wind_Speed
2 1 1 1 1 1 1 2 2 3 3 4 4 5 4 4 3 3 2 8 9 9 9 9 9 9 9 9 10 10 10 10 10 10 10 9 9 9 8 8 9 9 9
2 2 1 1 1 1 2 2 3 3 3 4 4 4 4 4 3 3 3 5 9 9 9 9 9 9 9 10 10 10 10 10 10 10 9 9 9 8 8 9 9 9 10
3 3 2 2 1 2 3 3 4 4 4 5 5 5 4 3 3 3 3 3 4 7 10 11 11 11 11 11 10 10 10 10 10 10 10 9 9 8 8 9 9 9 9
4 3 3 2 2 3 3 3 3 4 4 4 4 4 4 3 4 3 3 3 3 4 7 11 12 12 12 11 11 10 10 10 10 10 10 10 9 9 9 9 9 9 9
4 3 3 2 3 3 3 3 3 3 4 4 4 4 4 3 3 4 3 3 3 3 3 7 12 12 13 13 12 12 11 10 10 10 10 10 9 9 9 9 9 9 9
4 4 3 3 4 4 3 3 4 3 3 3 6 5 4 4 4 4 3 3 3 4 4 5 5 7 13 14 13 13 12 11 10 10 10 10 9 9 10 10 10 10 9
4 4 3 3 3 3 3 4 3 4 3 3 4 4 4 5 5 4 3 3 4 4 4 4 4 4 5 11 13 13 13 12 11 11 10 9 9 9 9 10 10 10 10
4 4 4 3 3 4 4 3 3 3 2 2 3 3 2 4 4 5 4 4 4 4 5 6 5 5 4 4 8 13 13 13 12 12 11 10 10 10 10 11 11 11 11
4 4 4 4 3 3 3 3 3 4 2 1 2 3 3 2 1 3 4 4 4 4 4 4 5 5 5 5 5 10 14 14 14 13 12 12 11 11 12 12 12 12 12
4 4 4 4 4 3 3 2 3 3 3 1 1 1 2 4 3 1 3 3 4 5 4 4 4 5 5 4 7 12 14 14 15 15 13 13 12 13 13 13 14 13 13
3 4 4 4 4 3 3 3 3 3 2 2 1 1 3 3 3 4 1 2 3 3 3 3 3 4 5 5 4 9 14 14 15 16 15 14 13 13 13 14 14 14 14
2 3 4 4 3 3 3 3 4 4 3 3 2 2 2 2 2 3 3 1 1 2 3 3 3 3 3 4 6 11 13 13 15 15 15 14 13 13 13 14 15 15 15
1 2 3 3 3 3 3 3 4 4 3 4 3 2 2 2 2 3 4 3 2 2 2 3 3 2 3 3 4 10 11 13 13 14 15 14 14 14 14 15 15 16 16
1 2 3 3 3 3 4 4 4 3 4 4 4 4 3 2 2 3 4 4 3 2 3 2 2 3 2 2 4 7 6 11 12 13 14 14 14 14 14 15 16 16 16
2 3 4 4 4 4 4 4 4 4 4 4 4 4 3 3 2 2 3 3 4 3 1 2 2 2 2 2 4 4 4 8 11 11 12 13 13 13 14 14 14 14 14
3 4 4 4 4 4 4 5 4 3 5 4 3 5 4 3 3 3 2 2 3 4 2 1 1 2 2 2 4 3 4 7 9 9 10 10 11 11 11 11 12 12 12
4 4 4 4 4 4 4 5 4 4 5 4 4 5 4 3 3 3 3 3 3 3 4 1 1 2 2 3 3 3 3 3 3 7 7 8 8 9 9 9 9 9 10
4 4 4 4 4 4 4 5 4 4 4 4 3 4 3 3 4 3 3 3 3 3 4 2 1 2 2 2 2 2 2 2 2 4 5 6 6 7 7 7 7 8 8
4 4 5 5 4 4 4 4 4 4 4 4 4 4 3 4 4 3 3 3 2 3 3 3 1 1 2 2 2 3 3 3 3 3 4 5 6 6 6 5 5 5 5
5 5 4 4 4 4 4 4 4 4 4 3 3 3 3 4 4 3 3 3 3 4 3 3 1 1 2 2 2 2 3 3 3 3 4 4 5 6 6 5 4 4 4
5 5 5 4 4 4 4 5 5 5 4 4 3 2 3 4 5 4 4 3 4 3 3 2 1 1 2 2 1 1 1 2 3 2 2 2 2 2 3 4 4 4 3
4 5 5 5 4 3 7 9 7 5 4 4 3 2 2 3 5 6 6 6 6 5 3 2 1 1 1 1 1 0 0 1 3 3 1 3 2 2 2 2 3 4 4
5 4 4 5 5 4 8 9 9 6 4 4 3 3 2 2 3 3 4 5 4 4 5 5 3 2 2 2 1 0 0 1 2 3 1 2 2 2 3 3 4 4 4
5 4 4 5 5 5 8 9 9 5 4 3 3 4 4 3 3 4 4 3 2 1 1 2 3 3 2 2 3 2 2 1 2 2 1 1 3 3 3 3 5 5 4
5 4 4 5 5 4 7 9 9 4 3 2 2 3 4 4 5 6 5 3 1 1 1 1 2 1 0 1 2 2 1 1 2 3 1 1 2 3 3 3 4 6 5
5 5 4 4 5 4 7 9 9 4 3 2 1 1 4 5 6 7 5 4 3 2 0 1 2 2 2 2 1 1 2 1 1 2 2 1 1 2 3 3 2 3 3
Wind_Direction
140 144 129 99 76 64 60 59 62 71 79 78 95 106 103 98 90 71 56 69 67 62 61 64 63 60 54 46 42 39 35 33 31 31 29 32 34 30 23 19 17 14 12
128 124 109 94 77 86 93 88 81 83 84 84 85 93 98 99 92 81 61 58 61 57 52 56 56 53 51 46 43 40 38 34 32 32 34 35 33 30 25 24 21 20 21
116 110 101 83 72 86 89 82 77 71 76 77 76 86 90 89 98 87 67 49 44 50 53 51 50 48 46 44 42 41 40 37 34 33 32 35 34 34 30 29 26 25 27
93 94 93 83 90 92 92 90 82 78 72 74 73 72 74 74 81 85 71 57 43 43 48 51 47 43 42 40 39 40 40 38 36 34 33 33 35 35 34 32 30 29 29
82 94 94 91 90 84 84 98 84 94 90 82 79 65 58 62 61 72 69 62 55 51 43 47 45 41 38 36 36 35 37 39 37 37 36 34 34 35 36 37 35 34 34
72 86 91 93 93 87 79 85 88 78 86 87 82 65 45 45 49 50 53 53 53 56 47 44 32 33 36 35 32 33 34 37 37 37 37 36 36 36 38 38 36 39 41
71 82 90 88 91 95 100 101 92 80 70 87 82 55 30 34 43 37 38 51 50 49 52 46 35 26 23 30 28 34 33 34 35 36 38 41 42 42 44 43 41 42 45
68 89 97 99 96 93 85 88 98 97 77 86 111 97 49 17 15 22 27 52 48 42 49 50 39 34 27 17 19 31 30 31 35 39 42 44 48 51 50 48 45 48 51
66 80 93 99 97 101 104 103 114 120 117 40 91 134 136 157 25 2 19 33 40 47 43 41 40 31 34 24 14 26 32 30 37 43 44 46 53 56 54 50 49 53 55
62 78 86 91 94 97 102 104 108 114 121 110 32 62 124 142 135 90 2 11 36 43 40 46 37 30 34 29 30 35 37 33 37 41 45 50 56 60 57 53 52 57 61
52 73 85 91 92 93 99 95 94 96 107 123 119 101 82 71 93 123 112 8 22 18 26 35 36 33 32 31 31 40 41 38 39 40 42 49 54 58 58 55 54 58 61
36 54 79 84 91 96 100 102 98 97 95 94 90 92 116 121 129 119 124 111 59 2 11 19 30 29 32 30 41 45 45 43 43 43 44 49 51 53 54 55 55 56 58
56 62 81 83 83 92 96 94 89 85 88 91 90 85 89 109 129 123 119 123 91 12 9 12 9 15 33 31 34 44 45 46 46 47 49 53 53 52 52 54 54 54 54
148 118 103 94 90 91 90 88 85 86 86 87 87 87 82 72 92 122 134 133 102 36 23 357 353 9 21 25 28 38 40 48 49 49 50 53 54 55 54 54 53 51 51
143 123 111 99 92 94 92 92 86 82 85 80 82 82 78 65 72 85 111 130 136 129 17 336 354 346 358 20 27 35 34 46 50 51 52 53 54 55 56 57 55 52 49
134 127 115 107 99 94 92 90 88 88 89 80 82 80 73 66 67 71 90 97 110 131 139 294 300 317 353 35 41 34 33 43 47 50 52 54 55 55 55 55 53 51 48
143 140 136 122 112 105 101 98 96 96 93 82 78 85 78 74 74 64 75 84 91 110 117 5 352 360 21 26 17 18 23 23 30 43 47 48 49 51 52 54 52 48 45
144 144 136 128 126 120 114 115 116 109 108 104 95 93 86 83 73 67 76 81 85 95 119 115 360 4 8 357 4 11 17 23 16 29 36 38 39 41 42 46 48 46 44
138 134 132 135 137 135 126 123 122 118 118 119 117 114 110 100 86 78 81 84 84 82 86 112 70 355 355 0 17 9 12 358 359 19 25 29 33 34 33 34 35 35 33
144 145 144 146 145 142 137 129 121 119 115 110 113 118 120 123 127 117 100 99 100 88 80 89 75 10 352 345 29 12 358 351 351 5 14 23 19 16 13 10 12 13 15
152 149 142 142 143 145 151 144 133 129 125 117 103 101 115 129 136 133 126 128 116 104 93 88 72 25 353 352 334 319 351 334 336 352 357 352 352 349 342 340 345 353 0
146 137 143 145 145 157 156 154 145 136 133 130 127 113 100 106 111 111 114 127 134 133 137 129 131 162 266 268 291 344 358 9 332 327 11 334 354 323 306 306 330 343 347
146 140 146 141 144 156 153 150 148 139 140 146 150 146 131 120 116 106 95 89 90 118 141 150 157 197 213 223 181 56 239 202 248 290 29 317 329 316 305 320 324 331 336
153 153 152 150 144 155 155 150 147 134 134 148 158 160 154 159 156 140 118 90 56 34 141 146 166 197 202 198 179 183 195 221 297 316 89 294 316 308 315 315 331 340 337
158 161 158 155 152 163 160 155 146 132 130 144 165 168 165 169 171 151 132 129 95 339 16 116 144 147 100 145 142 97 58 52 337 311 319 203 300 312 315 316 334 348 343
166 159 157 166 167 175 170 162 153 140 143 156 163 186 183 177 173 160 151 152 165 239 294 25 15 355 347 357 24 149 169 156 224 298 293 196 297 341 326 308 313 323 328